STARLINK-2391, 47810

Orbit data source: Space-Track

STARLINK-2391, 47810 is a payload satellite owned by SpaceX/Seattle (US) in LEO that was launched on Thu, 11 Mar 2021 UTC via an FALCON 9 launch vehicle from the Air Force Eastern Test Range (AFETR). Payload-class satellites include a variety of spacecraft equipped with specific instruments for various scientific and technological missions. These include communications satellites like Starlink; space stations such as the ISS; scientific satellites like the Hubble; Earth observation satellites from companies like Planet Labs, Umbra, and HawkEye 360; GPS; miniature CubeSats for education and research; and military/defense satellites.

Loading next visibility...
Identifier
47810, 2021-018Z
Orbit
LEO
Country
Flag of USUS
Related business
Manufacturer
SpaceX/Seattle
Mission
Operational Commercial Communications
Bus & Motor
STARLINK, Unknown motor
Mass
260 kg wet, ~248 kg dry
Launch date (UTC)
2021-03-11 (5 years ago)
Launch vehicle
FALCON 9
Launch site
Air Force Eastern Test Range (AFETR)
Object type
Payload
Rocket body
Debris
Shape & HBR
Box + 1 Pan, 10.1 m
Radar Cross Section
13.562 m², Large (>1 m²)

Expand to show TLE details & history
Last TLE update: 3 days ago

TLE from 3 days ago
0 STARLINK-2391
1 47810U 21018Z   26170.61703421  .00001186  00000-0  49968-4 0  9998
2 47810  53.1596 141.5251 0001363  92.1920 267.9237 15.31707404292210
Epoch: 2026-06-19T14:48Z
TLE epoch observation values (Epoch: 2026-06-19T14:48:31.755Z)
Latitude
-0.00007°
Longitude
11.54929°
Altitude
471.652 km
Speed
7.631 km/s
True Right ascension
09h 26m 06s
True Declination
0° 00' 00"
Sunlit
Object was in daylight at epoch
Visualization orbit readout
Latitude
Unknown
Longitude
Unknown
Altitude
Unknown
Speed
Unknown
Apparent Right ascension
Unknown
Apparent Declination
Unknown
Sunlit
N/A
Visualization observer readout
Local Sidereal Time
21:43:26
Azimuth
Unknown
Elevation
Unknown
Doppler factor
Unknown
Orbital elements
Apogee altitude
471.908 km
Perigee altitude
470.041 km
Semi-major axis
6,849.112 km
Eccentricity
0.00014
Inclination
53.1596°
RAAN
141.5251°
Arg. of periapsis
92.192°
True anomaly
267.90809°
Mean anomaly
267.9237°
Eccentric anomaly
267.9159°
Mean motion
3.82906 °/min
Orbital period
94.02 mins
BSTAR
0.000049968
Loading maneuver chart data...
Computing Atmospheric mass density...

Documentation

Showing up to 5 results
|